FW1924 Weather Reports


Display with metric or nautical units.
time (UTC)temp
F
wind
direction
speed
MPH
gust
MPH
rain 1hr
in
rain 24hr
in
rain mn
in
humidity
%
barometer
mb
20260904080015 69 161 12.0 22.0 0.00 0.00 0.00 19 999.7
20260904074606 70 187 7.0 17.0 0.00 0.00 0.00 19 999.7
20260904073057 70 167 16.0 26.0 0.00 0.00 0.00 18 999.7
20260904071541 71 160 10.0 17.0 0.00 0.00 0.00 18 999.6
20260904070025 71 163 16.0 24.0 0.00 0.00 0.00 19 999.6
20260904064515 71 182 16.0 23.0 0.00 0.00 0.00 19 999.6
20260904063006 71 144 14.0 31.0 0.00 0.00 0.00 19 999.5
20260904061511 71 160 15.0 24.0 0.00 0.00 0.00 19 999.2
20260904060100 71 159 7.0 16.0 0.00 0.00 0.00 20 999.2
20260904054516 71 178 3.0 10.0 0.00 0.00 0.00 20 999.2
20260904053023 72 174 1.0 12.0 0.00 0.00 0.00 20 999.1
20260904051609 73 186 7.0 17.0 0.00 0.00 0.00 19 999.4
20260904050008 73 182 10.0 19.0 0.00 0.00 0.00 19 999.3
20260904044603 73 153 7.0 17.0 0.00 0.00 0.00 19 999.4
20260904043049 73 162 5.0 12.0 0.00 0.00 0.00 19 999.3
20260904041543 73 176 8.0 17.0 0.00 0.00 0.00 19 999.2
20260904040036 74 141 10.0 19.0 0.00 0.00 0.00 19 999.0
20260904034534 74 152 9.0 15.0 0.00 0.00 0.00 18 998.8
20260904033032 74 149 12.0 22.0 0.00 0.00 0.00 18 999.0
20260904031522 74 177 7.0 14.0 0.00 0.00 0.00 18 998.8
20260904030023 74 180 5.0 13.0 0.00 0.00 0.00 19 998.9
20260904024523 74 187 4.0 8.0 0.00 0.00 0.00 19 998.9
20260904023014 75 163 5.0 12.0 0.00 0.00 0.00 18 998.8
20260904021516 77 192 6.0 10.0 0.00 0.00 0.00 17 998.8
20260904020006 78 184 6.0 13.0 0.00 0.00 0.00 17 998.8
20260904014606 78 189 10.0 18.0 0.00 0.00 0.00 16 998.7
20260904013047 79 164 10.0 24.0 0.00 0.00 0.00 16 998.9
20260904011546 79 173 7.0 22.0 0.00 0.00 0.00 16 999.1
20260904010045 80 180 10.0 26.0 0.00 0.00 0.00 15 999.1
20260904004528 80 220 9.0 29.0 0.00 0.00 0.00 15 999.3
20260904003029 80 234 10.0 22.0 0.00 0.00 0.00 15 999.3
20260904001527 81 174 13.0 24.0 0.00 0.00 0.00 15 999.3
20260904000028 81 198 13.0 25.0 0.00 0.00 0.00 15 999.3
20260903234512 82 184 10.0 28.0 0.00 0.00 0.00 15 999.4
20260903233001 83 190 14.0 27.0 0.00 0.00 0.00 14 999.6
20260903231502 83 174 14.0 31.0 0.00 0.00 0.00 14 999.7
20260903230050 84 190 11.0 29.0 0.00 0.00 0.00 14 999.9
20260903224555 84 150 15.0 30.0 0.00 0.00 0.00 13 1000.1
20260903223046 84 205 17.0 31.0 0.00 0.00 0.00 12 1000.5
20260903221544 84 165 18.0 29.0 0.00 0.00 0.00 12 1000.6
20260903220050 84 182 17.0 35.0 0.00 0.00 0.00 13 1000.7
20260903214542 85 206 16.0 24.0 0.00 0.00 0.00 13 1000.8
20260903213033 85 204 15.0 34.0 0.00 0.00 0.00 13 1001.1
20260903211523 85 171 14.0 22.0 0.00 0.00 0.00 14 1001.2
20260903210019 84 173 14.0 30.0 0.00 0.00 0.00 13 1001.5
20260903204620 84 225 11.0 24.0 0.00 0.00 0.00 13 1001.7
20260903203010 84 178 16.0 29.0 0.00 0.00 0.00 13 1002.0
20260903201509 84 191 17.0 31.0 0.00 0.00 0.00 13 1002.3
20260903200104 84 163 17.0 29.0 0.00 0.00 0.00 14 1002.4
20260903194550 83 157 15.0 29.0 0.00 0.00 0.00 14 1002.5
20260903193053 83 109 15.0 27.0 0.00 0.00 0.00 14 1002.9
20260903191540 83 148 13.0 26.0 0.00 0.00 0.00 16 1003.2
20260903190030 82 148 9.0 23.0 0.00 0.00 0.00 18 1003.4
20260903184621 82 153 21.0 29.0 0.00 0.00 0.00 14 1003.4
20260903183016 81 188 16.0 26.0 0.00 0.00 0.00 15 1003.8
20260903181515 81 177 19.0 27.0 0.00 0.00 0.00 15 1003.9
20260903180004 80 172 7.0 17.0 0.00 0.00 0.00 19 1004.1
20260903174553 79 122 15.0 22.0 0.00 0.00 0.00 17 1004.2
20260903173043 78 154 16.0 27.0 0.00 0.00 0.00 17 1004.2
20260903171529 76 128 7.0 21.0 0.00 0.00 0.00 21 1004.3
20260903170020 74 117 10.0 21.0 0.00 0.00 0.00 22 1004.4
20260903164505 73 127 11.0 18.0 0.00 0.00 0.00 24 1004.3
20260903163053 71 111 10.0 20.0 0.00 0.00 0.00 24 1004.4
20260903161642 70 140 14.0 24.0 0.00 0.00 0.00 23 1004.4
20260903160140 69 153 13.0 21.0 0.00 0.00 0.00 25 1004.5
20260903154536 68 136 11.0 19.0 0.00 0.00 0.00 25 1004.3
20260903153024 67 169 15.0 20.0 0.00 0.00 0.00 25 1004.5
20260903151513 65 153 6.0 18.0 0.00 0.00 0.00 26 1004.7
20260903150026 62 196 0.0 6.0 0.00 0.00 0.00 29 1004.6
20260903144512 61 186 0.0 8.0 0.00 0.01 0.00 30 1004.6
20260903143108 60 224 0.0 7.0 0.00 0.01 0.00 30 1004.7
20260903141657 58 228 0.0 6.0 0.00 0.01 0.00 31 1004.6
20260903140048 56 215 0.0 5.0 0.00 0.01 0.00 34 1004.6
20260903134546 54 205 0.0 0.0 0.00 0.01 0.00 35 1004.4
20260903133038 53 263 0.0 0.0 0.00 0.01 0.00 45 1004.3
20260903131526 53 276 0.0 0.0 0.00 0.01 0.00 47 1003.9
20260903130016 53 281 0.0 0.0 0.00 0.01 0.00 46 1003.7
20260903124514 53 209 0.0 0.0 0.00 0.01 0.00 46 1003.5
20260903123006 54 209 0.0 0.0 0.00 0.01 0.00 45 1003.5
20260903121556 54 209 0.0 0.0 0.00 0.01 0.00 44 1003.3
20260903120100 55 209 0.0 0.0 0.00 0.01 0.00 43 1003.3
20260903114545 55 209 0.0 0.0 0.00 0.01 0.00 40 1003.2
20260903113044 56 209 0.0 0.0 0.00 0.01 0.00 40 1003.2
20260903111534 56 208 0.0 0.0 0.00 0.01 0.00 38 1003.2
20260903110022 57 191 0.0 0.0 0.00 0.01 0.00 38 1003.3
20260903104514 58 191 0.0 0.0 0.00 0.01 0.00 33 1003.2
20260903103015 58 180 0.0 0.0 0.00 0.01 0.00 32 1003.1
20260903101507 58 192 0.0 0.0 0.00 0.01 0.00 34 1003.2
20260903100100 57 250 0.0 0.0 0.00 0.01 0.00 35 1002.9
20260903094554 57 260 0.0 0.0 0.00 0.01 0.00 40 1002.9
20260903093045 58 272 0.0 0.0 0.00 0.01 0.00 41 1002.7
20260903091528 59 273 0.0 0.0 0.00 0.01 0.00 39 1002.6
20260903090027 59 273 0.0 0.0 0.00 0.01 0.00 38 1002.6
20260903084514 60 273 0.0 0.0 0.00 0.01 0.00 36 1002.7
20260903083105 60 273 0.0 0.0 0.00 0.01 0.00 35 1002.7
20260903081527 61 282 0.0 0.0 0.00 0.01 0.00 36 1002.7